This is the latest recevied weather packets stored in our database for station/object KC8ZBC. If no packets are shown the sender has not sent any weather packets the latest 10 day(s).
| Time | Temp. | Humidity | Pressure | Rain* | Wind** | Luminosity | Snow |
|---|---|---|---|---|---|---|---|
| 1778083964 | 10° C | 56% | 987.9 hPa | 0 mm | - | 207 W/m² | - |
| 1778083662 | 9.44° C | 57% | 987.9 hPa | 0 mm | - | 445 W/m² | - |
| 1778083358 | 9.44° C | 57% | 988 hPa | 0 mm | - | 202 W/m² | - |
| 1778083057 | 8.89° C | 57% | 987.7 hPa | 0 mm | - | 305 W/m² | - |
| 1778082753 | 8.33° C | 60% | 987.9 hPa | 0 mm | - | 817 W/m² | - |
| 1778081621 | 8.33° C | 58% | 987.7 hPa | 0 mm | - | 635 W/m² | - |
| 1778081317 | 9.44° C | 58% | 987.8 hPa | 0 mm | - | 352 W/m² | - |
| 1778081015 | 8.89° C | 58% | 987.7 hPa | 0 mm | - | 530 W/m² | - |
| 1778080713 | 9.44° C | 56% | 987.9 hPa | 0 mm | - | 553 W/m² | - |
| 1778080409 | 9.44° C | 57% | 987.7 hPa | 0 mm | - | 608 W/m² | - |
| 1778080107 | 8.89° C | 57% | 987.6 hPa | 0 mm | - | 656 W/m² | - |
| 1778079804 | 8.33° C | 59% | 987.7 hPa | 0 mm | - | 699 W/m² | - |
| 1778079500 | 8.89° C | 59% | 987.6 hPa | 0 mm | - | 617 W/m² | - |
| 1778079197 | 8.33° C | 59% | 987.5 hPa | 0 mm | - | 559 W/m² | - |
| 1778078895 | 7.78° C | 59% | 987.4 hPa | 0 mm | - | 560 W/m² | - |
| 1778078591 | 7.78° C | 60% | 987.5 hPa | 0 mm | - | 543 W/m² | - |
| 1778078289 | 8.89° C | 59% | 987.6 hPa | 0 mm | - | 599 W/m² | - |
| 1778077986 | 7.78° C | 62% | 987.5 hPa | 0 mm | - | 618 W/m² | - |
| 1778077684 | 7.78° C | 60% | 987.4 hPa | 0 mm | - | 603 W/m² | - |
| 1778077382 | 7.78° C | 63% | 987.3 hPa | 0 mm | - | 593 W/m² | - |
| 1778077080 | 7.78° C | 63% | 987.4 hPa | 0 mm | - | 568 W/m² | - |
| 1778076778 | 7.78° C | 64% | 987.3 hPa | 0 mm | - | 509 W/m² | - |
| 1778076475 | 6.67° C | 65% | 987.2 hPa | 0 mm | - | 552 W/m² | - |
| 1778076172 | 6.11° C | 66% | 987.2 hPa | 0 mm | - | 483 W/m² | - |
| 1778075869 | 6.67° C | 66% | 987.4 hPa | 0 mm | - | 511 W/m² | - |
* Rain latest hour (hover to see other rain measurements)
** Current wind speed in m/s (hover to see current wind gust speed)